KD8BMB Weather Reports


time (UTC)temp
C
wind
direction
speed
KPH
gust
KPH
rain 1hr
cm
rain 24hr
cm
rain mn
cm
humidity
%
barometer
mb
20260503031927 5 247 1.6 1.6 0.00 0.00 0.00 62 1015.1
20260503031424 5 285 0.0 0.0 0.00 0.00 0.00 63 1015.0
20260503030921 5 301 4.8 4.8 0.00 0.00 0.00 64 1015.3
20260503030417 5 290 0.0 1.6 0.00 0.00 0.00 63 1014.8
20260503025914 5 253 1.6 1.6 0.00 0.00 0.00 63 1015.2
20260503025411 5 239 0.0 0.0 0.00 0.00 0.00 64 1015.2
20260503024909 5 224 0.0 0.0 0.00 0.00 0.00 63 1015.2
20260503024405 5 287 0.0 1.6 0.00 0.00 0.00 64 1015.2
20260503023902 5 267 0.0 0.0 0.00 0.00 0.00 65 1015.2
20260503023359 5 303 0.0 0.0 0.00 0.00 0.00 65 1015.1
20260503022856 5 294 0.0 0.0 0.00 0.00 0.00 64 1015.4
20260503022350 5 261 0.0 0.0 0.00 0.00 0.00 63 1015.4
20260503021847 5 276 0.0 0.0 0.00 0.00 0.00 63 1015.3
20260503021343 5 271 0.0 0.0 0.00 0.00 0.00 64 1015.3
20260503020840 5 295 0.0 0.0 0.00 0.00 0.00 63 1015.0
20260503020338 5 279 0.0 0.0 0.00 0.00 0.00 63 1015.1
20260503015834 5 287 0.0 0.0 0.00 0.00 0.00 63 1015.0
20260503015332 5 250 0.0 0.0 0.00 0.00 0.00 62 1015.1
20260503014827 5 291 0.0 0.0 0.00 0.00 0.00 62 1015.0
20260503014325 5 279 0.0 0.0 0.00 0.00 0.00 62 1015.2
20260503013822 5 290 0.0 0.0 0.00 0.00 0.00 61 1015.2
20260503013320 5 288 0.0 0.0 0.00 0.00 0.00 62 1015.1
20260503012817 5 304 0.0 0.0 0.00 0.00 0.00 62 1015.0
20260503012314 5 290 0.0 0.0 0.00 0.00 0.00 62 1015.0
20260503011810 5 287 0.0 0.0 0.00 0.00 0.00 61 1015.1
20260503011308 6 286 0.0 0.0 0.00 0.00 0.00 59 1014.9
20260503010804 6 287 0.0 0.0 0.00 0.00 0.00 58 1015.0
20260503010301 6 287 0.0 0.0 0.00 0.00 0.00 57 1014.9
20260503005758 6 287 0.0 0.0 0.00 0.00 0.00 55 1015.0
20260503005256 6 287 0.0 0.0 0.00 0.00 0.00 53 1014.9
20260503004751 7 294 0.0 0.0 0.00 0.00 0.00 53 1014.6
20260503004250 7 270 0.0 0.0 0.00 0.00 0.00 53 1015.0
20260503003746 7 236 3.2 3.2 0.00 0.00 0.00 50 1014.8
20260503003244 7 278 1.6 1.6 0.00 0.00 0.00 50 1014.8
20260503002740 7 272 0.0 0.0 0.00 0.00 0.00 50 1015.2
20260503002237 8 257 0.0 1.6 0.00 0.00 0.00 47 1014.9
20260503001733 8 286 0.0 0.0 0.00 0.00 0.00 47 1015.0
20260503001230 8 301 0.0 0.0 0.00 0.00 0.00 49 1014.9
20260503000728 8 283 0.0 0.0 0.00 0.00 0.00 47 1014.6
20260503000226 8 251 0.0 0.0 0.00 0.00 0.00 45 1014.7
20260502235722 9 269 0.0 0.0 0.00 0.00 0.00 48 1015.0
20260502235220 9 250 0.0 0.0 0.00 0.00 0.00 44 1014.9
20260502234716 9 249 0.0 0.0 0.00 0.00 0.00 45 1015.0
20260502234213 8 256 0.0 0.0 0.00 0.00 0.00 45 1014.9
20260502233709 8 263 0.0 0.0 0.00 0.00 0.00 45 1014.9
20260502233206 8 290 0.0 1.6 0.00 0.00 0.00 44 1015.0
20260502232701 8 246 1.6 1.6 0.00 0.00 0.00 44 1015.1
20260502232159 9 242 3.2 3.2 0.00 0.00 0.00 43 1015.1
20260502231655 9 216 3.2 3.2 0.00 0.00 0.00 43 1015.1
20260502231153 10 231 4.8 8.0 0.00 0.00 0.00 42 1015.0
20260502230652 10 273 1.6 3.2 0.00 0.00 0.00 42 1015.0
20260502230150 10 265 3.2 4.8 0.00 0.00 0.00 41 1015.0
20260502225645 10 271 3.2 4.8 0.00 0.00 0.00 42 1015.4
20260502225143 10 251 6.4 9.7 0.00 0.00 0.00 40 1015.3
20260502224638 10 271 6.4 11.3 0.00 0.00 0.00 40 1015.4
20260502224136 10 262 6.4 8.0 0.00 0.00 0.00 40 1015.2
20260502223633 10 209 6.4 8.0 0.00 0.00 0.00 40 1015.0
20260502223131 10 248 6.4 11.3 0.00 0.00 0.00 41 1015.2
20260502222629 11 96 1.6 3.2 0.00 0.00 0.00 37 1015.3
20260502222125 10 303 0.0 0.0 0.00 0.00 0.00 38 1015.2
20260502221620 9 258 0.0 0.0 0.00 0.00 0.00 42 1015.3
20260502221118 8 331 0.0 0.0 0.00 0.00 0.00 42 1015.4
20260502220615 8 295 4.8 4.8 0.00 0.00 0.00 40 1015.3
20260502220111 9 206 3.2 3.2 0.00 0.00 0.00 40 1015.6
20260502215608 9 331 1.6 1.6 0.00 0.00 0.00 42 1015.3
20260502215105 9 286 6.4 11.3 0.00 0.00 0.00 42 1015.6
20260502214601 9 110 1.6 3.2 0.00 0.00 0.00 39 1015.4
20260502214059 9 268 4.8 4.8 0.00 0.00 0.00 42 1015.4
20260502213556 9 17 0.0 1.6 0.00 0.00 0.00 40 1015.6
20260502213053 9 252 4.8 8.0 0.00 0.00 0.00 40 1015.4
20260502212552 8 246 0.0 0.0 0.00 0.00 0.00 40 1015.5
20260502212050 8 271 0.0 1.6 0.00 0.00 0.00 41 1015.5
20260502211545 9 282 1.6 1.6 0.00 0.00 0.00 40 1015.4
20260502211043 9 227 9.7 14.5 0.00 0.00 0.00 39 1015.6
20260502210539 9 281 8.0 11.3 0.00 0.00 0.00 39 1015.6
20260502210036 9 231 3.2 8.0 0.00 0.00 0.00 39 1015.7
20260502205533 8 296 1.6 3.2 0.00 0.00 0.00 40 1015.8
20260502205030 9 317 4.8 4.8 0.00 0.00 0.00 38 1015.8
20260502204527 9 280 0.0 1.6 0.00 0.00 0.00 40 1015.7
20260502204025 10 282 1.6 1.6 0.00 0.00 0.00 38 1015.7
20260502203521 10 331 8.0 14.5 0.00 0.00 0.00 38 1015.8
20260502203018 10 220 6.4 11.3 0.00 0.00 0.00 38 1015.8
20260502202514 10 36 4.8 4.8 0.00 0.00 0.00 38 1016.0
20260502202013 9 279 0.0 1.6 0.00 0.00 0.00 41 1016.0
20260502201509 9 330 4.8 8.0 0.00 0.00 0.00 39 1015.8
20260502201005 9 318 1.6 3.2 0.00 0.00 0.00 39 1015.9
20260502200501 10 209 9.7 11.3 0.00 0.00 0.00 39 1016.1
20260502195959 9 287 4.8 8.0 0.00 0.00 0.00 40 1016.1
20260502195456 8 247 3.2 3.2 0.00 0.00 0.00 42 1016.2
20260502194952 8 279 6.4 8.0 0.00 0.00 0.00 40 1016.3
20260502194449 9 281 3.2 3.2 0.00 0.00 0.00 40 1016.5
20260502193945 9 196 0.0 0.0 0.00 0.00 0.00 41 1016.4
20260502193443 8 287 3.2 3.2 0.00 0.00 0.00 40 1016.6
20260502192938 10 227 11.3 12.9 0.00 0.00 0.00 39 1016.5
20260502192435 8 275 1.6 3.2 0.00 0.00 0.00 43 1016.5
20260502191932 8 208 8.0 12.9 0.00 0.00 0.00 41 1016.6
20260502191430 8 201 6.4 9.7 0.00 0.00 0.00 43 1016.7
20260502190927 8 331 1.6 1.6 0.00 0.00 0.00 41 1016.4
20260502190424 8 1 0.0 0.0 0.00 0.00 0.00 42 1016.7
20260502185920 8 345 6.4 9.7 0.00 0.00 0.00 42 1016.8
20260502185416 8 290 3.2 8.0 0.00 0.00 0.00 44 1016.9
20260502184913 8 334 0.0 0.0 0.00 0.00 0.00 44 1017.0
20260502184409 8 287 4.8 4.8 0.00 0.00 0.00 45 1016.9
20260502183905 8 268 8.0 11.3 0.00 0.00 0.00 44 1016.7
20260502183401 8 277 4.8 11.3 0.00 0.00 0.00 44 1016.8
20260502182857 8 250 3.2 3.2 0.00 0.00 0.00 45 1017.1
20260502182353 8 246 4.8 8.0 0.00 0.00 0.00 43 1016.9
20260502181849 8 34 6.4 8.0 0.00 0.00 0.00 42 1017.0
20260502181348 8 327 4.8 11.3 0.00 0.00 0.00 46 1017.2
20260502180845 8 330 1.6 3.2 0.00 0.00 0.00 47 1017.2
20260502180342 8 220 14.5 20.9 0.00 0.00 0.00 46 1017.2
20260502170301 6 295 1.6 3.2 0.00 0.00 0.00 51 1017.8
20260502164249 7 278 12.9 16.1 0.00 0.00 0.00 53 1018.1
20260502163744 7 292 1.6 3.2 0.00 0.00 0.00 53 1017.9
20260502163241 6 319 1.6 1.6 0.00 0.00 0.00 56 1018.0
20260502162738 6 0 0.0 0.0 0.00 0.00 0.00 56 1017.9
20260502162235 7 291 4.8 8.0 0.00 0.00 0.00 54 1018.0
20260502161732 7 329 4.8 8.0 0.00 0.00 0.00 52 1018.0
20260502161228 7 331 4.8 4.8 0.00 0.00 0.00 52 1018.1
20260502160726 6 267 3.2 3.2 0.00 0.00 0.00 54 1018.0
20260502160225 6 308 6.4 11.3 0.00 0.00 0.00 55 1018.1
20260502152149 6 314 3.2 4.8 0.00 0.00 0.00 53 1018.1
20260502151647 6 334 12.9 16.1 0.00 0.00 0.00 55 1018.3
20260502151144 6 355 4.8 4.8 0.00 0.00 0.00 53 1018.1
20260502150641 5 293 1.6 3.2 0.00 0.00 0.00 54 1018.4
20260502150137 5 341 3.2 3.2 0.00 0.00 0.00 56 1018.1
20260502130526 4 300 1.6 3.2 0.00 0.00 0.00 73 1018.5
20260502123509 3 303 3.2 4.8 0.00 0.00 0.00 78 1018.6
20260502123005 3 249 4.8 8.0 0.00 0.00 0.00 77 1018.5
20260502122502 3 34 3.2 3.2 0.00 0.00 0.00 78 1018.6
20260502122000 3 325 6.4 9.7 0.00 0.00 0.00 79 1018.6
20260502121457 2 347 3.2 3.2 0.00 0.00 0.00 79 1018.7
20260502120954 2 303 1.6 1.6 0.00 0.00 0.00 79 1018.5
20260502120450 2 39 3.2 3.2 0.00 0.00 0.00 80 1018.5
20260502115445 2 313 3.2 8.0 0.00 0.00 0.00 81 1018.6
20260502114941 2 339 1.6 1.6 0.00 0.00 0.00 82 1018.4
20260502114437 2 40 1.6 1.6 0.00 0.00 0.00 82 1018.6
20260502113935 1 304 3.2 3.2 0.00 0.00 0.00 83 1018.6
20260502113432 1 309 8.0 9.7 0.00 0.00 0.00 83 1018.5
20260502112931 1 279 1.6 1.6 0.00 0.00 0.00 84 1018.4
20260502112428 1 311 0.0 0.0 0.00 0.00 0.00 85 1018.5
20260502111926 1 307 4.8 4.8 0.00 0.00 0.00 88 1018.4
20260502111422 0 305 0.0 0.0 0.00 0.00 0.00 89 1018.2
20260502110920 0 284 0.0 0.0 0.00 0.00 0.00 90 1018.4
20260502110418 0 289 0.0 0.0 0.00 0.00 0.00 90 1018.4
20260502105915 0 303 1.6 1.6 0.00 0.00 0.00 91 1018.5
20260502105412 0 292 0.0 0.0 0.00 0.00 0.00 91 1018.3
20260502104909 0 310 0.0 0.0 0.00 0.00 0.00 91 1018.3
20260502104407 0 314 1.6 3.2 0.00 0.00 0.00 92 1018.0
20260502103904 0 317 3.2 3.2 0.00 0.00 0.00 94 1018.2
20260502103402 0 281 0.0 0.0 0.00 0.00 0.00 94 1017.9
20260502102858 0 297 0.0 0.0 0.00 0.00 0.00 94 1018.2
20260502102355 0 303 0.0 0.0 0.00 0.00 0.00 95 1018.0
20260502101852 0 304 0.0 0.0 0.00 0.00 0.00 94 1018.0
20260502101350 0 311 0.0 0.0 0.00 0.00 0.00 94 1018.0
20260502100848 0 328 0.0 0.0 0.00 0.00 0.00 94 1018.1
20260502100348 0 331 0.0 0.0 0.00 0.00 0.00 94 1017.9
20260502091321 1 307 0.0 0.0 0.00 0.00 0.00 96 1017.7
20260502090819 1 324 1.6 1.6 0.00 0.00 0.00 97 1017.6
20260502090315 1 274 1.6 1.6 0.00 0.00 0.00 98 1017.8
20260502071211 2 315 0.0 0.0 0.00 0.00 0.00 93 1017.2
20260502070709 2 315 0.0 0.0 0.00 0.00 0.00 93 1017.4
20260502070206 2 312 0.0 0.0 0.00 0.00 0.00 92 1017.5
20260502065704 2 315 0.0 0.0 0.00 0.00 0.00 91 1017.5
20260502065202 2 328 0.0 0.0 0.00 0.00 0.00 91 1017.5
20260502064701 2 312 0.0 0.0 0.00 0.00 0.00 91 1017.5
20260502064157 2 313 0.0 0.0 0.00 0.00 0.00 90 1017.5
20260502063655 2 334 0.0 0.0 0.00 0.00 0.00 90 1017.2
20260502063153 2 334 0.0 0.0 0.00 0.00 0.00 89 1017.7
20260502062649 2 11 0.0 0.0 0.00 0.00 0.00 90 1017.6
20260502062147 2 347 0.0 0.0 0.00 0.00 0.00 89 1017.5
20260502061645 2 310 0.0 0.0 0.00 0.00 0.00 89 1017.6
20260502061142 2 16 0.0 0.0 0.00 0.00 0.00 89 1017.5
20260502060643 2 16 0.0 0.0 0.00 0.00 0.00 90 1017.7
20260502060140 2 336 0.0 0.0 0.00 0.00 0.00 90 1017.8
20260502055637 2 316 0.0 0.0 0.00 0.00 0.00 89 1017.5
20260502055135 3 308 0.0 0.0 0.00 0.00 0.00 89 1017.6
20260502054634 3 88 0.0 0.0 0.00 0.00 0.00 89 1017.5
20260502054131 2 57 0.0 0.0 0.00 0.00 0.00 89 1017.5
20260502053628 2 315 0.0 0.0 0.00 0.00 0.00 89 1017.8
20260502053125 3 316 0.0 0.0 0.00 0.00 0.00 88 1017.5
20260502052623 3 105 0.0 0.0 0.00 0.00 0.00 88 1017.6
20260502052122 3 88 0.0 0.0 0.00 0.00 0.00 88 1017.5
20260502051619 3 118 3.2 3.2 0.00 0.00 0.00 88 1017.5
20260502051117 3 322 0.0 0.0 0.00 0.00 0.00 87 1017.8
20260502050614 3 46 0.0 1.6 0.00 0.00 0.00 87 1017.5
20260502050110 3 72 0.0 0.0 0.00 0.00 0.00 87 1017.6
20260502045606 3 66 4.8 4.8 0.00 0.00 0.00 87 1017.2
20260502045104 3 61 4.8 8.0 0.00 0.00 0.00 87 1017.5
20260502044600 3 73 4.8 4.8 0.00 0.00 0.00 87 1017.4
20260502044057 3 68 1.6 3.2 0.00 0.00 0.00 87 1017.2
20260502043555 3 65 1.6 3.2 0.00 0.00 0.00 86 1017.2
20260502043050 3 52 1.6 3.2 0.00 0.00 0.00 86 1017.4
20260502042545 3 37 1.6 3.2 0.00 0.00 0.00 86 1017.2
20260502042043 3 39 1.6 1.6 0.00 0.00 0.00 86 1017.0
20260502041541 3 69 1.6 1.6 0.00 0.00 0.00 85 1017.4
20260502041038 3 81 3.2 4.8 0.00 0.00 0.00 86 1017.1
20260502040534 3 75 1.6 3.2 0.00 0.00 0.00 86 1017.1
20260502040031 3 67 0.0 0.0 0.00 0.00 0.00 86 1017.1
20260502035527 3 136 0.0 1.6 0.00 0.00 0.00 86 1017.0
20260502035025 3 87 1.6 3.2 0.00 0.00 0.00 86 1017.0
20260502034523 3 58 1.6 1.6 0.00 0.00 0.00 85 1016.8
20260502034021 4 57 4.8 8.0 0.00 0.00 0.00 82 1016.8
20260502033519 4 51 1.6 1.6 0.00 0.00 0.00 80 1016.8
20260502033016 4 25 1.6 3.2 0.00 0.00 0.00 77 1016.8
20260502032511 5 50 4.8 4.8 0.00 0.00 0.00 73 1016.8